OpenBCM V1.13 (Linux)

Packet Radio Mailbox

DB0FHN

[JN59NK Nuernberg]

 Login: GUEST





  
LU9DCE > KEP      27.04.19 19:34l 244 Lines 12036 Bytes #999 (0) @ WW
BID : 22985_LU9DCE
Read: DK3UZ DF7EAV GUEST
Subj: TLE 27 04
Path: DB0FHN<DB0BLO<DB0ERF<DB0RES<PI8CDR<VE2PKT<N3HYM<LU9DCE
Sent: 190427/1800Z 22985@LU9DCE.TOR.BA.ARG.SOAM LinBPQ6.0.18

            __    _  _  ___  ____   ___  ____    ____  ____  ____
           (  )  / )( \/ _ \(    \ / __)(  __)  (  _ \(  _ \/ ___)
           / (_/\) \/ (\__  )) D (( (__  ) _)    ) _ ( ) _ (\___ \
           \____/\____/(___/(____/ \___)(____)  (____/(____/(____/
               ESTACION DE PACKET RADIO - BUENOS AIRES (GF05OM)
                   BOLETINES INFORMATIVOS PROGRAMADOS (BIP)
              28.125 USB @ 300 BAUD --- HELLOCODELINUX@GMAIL.COM

+----------------------------------------------------------------------------+
OSCAR 7
1  7530U 74089B   19116.87504163 -.00000028  00000-0  10273-3 0  9992
2  7530 101.7391  85.0886 0012568  88.7827 325.5093 12.53637723 33907
OSCAR 11 (UoSAT 2)
1 14781U 84021B   19117.54702639  .00000033  00000-0  10157-4 0  9995
2 14781  97.6157 144.7185 0009767 125.4714 234.7413 14.83079068891032
OSCAR 19 (LUSAT)
1 20442U 90005G   19116.87973681  .00000013  00000-0  20918-4 0  9991
2 20442  98.6445  58.9804 0010878 309.1906  50.8311 14.32923216528811
EYESAT A
1 22825U 93061C   19116.95488941 -.00000001 +00000-0 +17605-4 0  9999
2 22825 098.9009 104.3964 0008958 146.3895 213.7856 14.30056517334148
ITAMSAT
1 22826U 93061D   19116.89889184 +.00000004 +00000-0 +19192-4 0  9992
2 22826 098.8949 104.3371 0009637 136.5725 223.6217 14.30389894334352
RADIO ROSTO
1 23439U 94085A   19116.83395845 -.00000050 +00000-0 -21259-3 0  9999
2 23439 064.8162 201.6026 0147236 123.4739 238.0356 11.27567768001939
JAS 2
1 24278U 96046B   19116.90217780 -.00000028 +00000-0 +73034-5 0  9993
2 24278 098.5297 277.4927 0350608 017.0992 344.1618 13.53090742120412
TECHSAT 1B
1 25397U 98043D   19116.90876703 -.00000004 +00000-0 +17564-4 0  9990
2 25397 098.6848 057.7041 0001509 143.2981 216.8301 14.23664109080148
ISS (ZARYA)
1 25544U 98067A   19117.51291131  .00001118  00000-0  25335-4 0  9995
2 25544  51.6412 253.0761 0001022 239.0710 239.2644 15.52595699167383
PCSAT
1 26931U 01043C   19117.48437217 -.00000023  00000-0  23093-4 0  9991
2 26931  67.0493 138.4006 0006078 278.7998  81.2415 14.30539534917505
SAUDISAT 1C
1 27607U 02058C   19116.74990418 -.00000015 +00000-0 +18799-4 0  9992
2 27607 064.5552 211.4573 0082383 266.6101 092.5575 14.75538888879093
CUTE-1
1 27844U 03031E   19116.95745942 +.00000050 +00000-0 +42006-4 0  9996
2 27844 098.6857 125.9558 0009865 176.7618 183.3625 14.22172176820752
CUBESAT XI 4
1 27848U 03031J   19116.93459258 +.00000031 +00000-0 +33947-4 0  9993
2 27848 098.6936 126.4216 0009515 188.0737 172.0288 14.21768027820611
MOZHAYETS 4
1 27939U 03042A   19117.38417137  .00000098  00000-0  26064-4 0  9991
2 27939  98.0311 254.2453 0011924 228.4158 131.6039 14.66772148832873
CUBESAT XI 5
1 28895U 05043F   19116.93741486 +.00000116 +00000-0 +31030-4 0  9993
2 28895 097.9507 261.5017 0017516 154.2180 205.9900 14.63652484719537
CUTE-1.7+APD II
1 32785U 08021C   19117.51317095  .00000178  00000-0  24834-4 0  9997
2 32785  97.5498 119.6902 0014689  77.7321 282.5540 14.88284805595926
DELFI C3
1 32789U 08021G   19117.35839501  .00001431  00000-0  10004-3 0  9990
2 32789  97.4696 168.5917 0010784 308.7242  51.3020 15.06825953599081
SEEDS
1 32791U 08021J   19117.01514900  .00000280  00000-0  33801-4 0  9991
2 32791  97.5295 125.1313 0014771  57.6051 302.6595 14.90783842596265
YUBELEINY
1 32953U 08025A   19117.49091484  .00000020  00000-0  75656-4 0  9990
2 32953  82.5062 177.2277 0018083 240.4703 119.4571 12.43088962495829
PRISM (HITOMI)
1 33493U 09002B   19116.77764461 +.00000766 +00000-0 +72735-4 0  9990
2 33493 098.1221 035.7261 0015184 004.0697 356.0644 14.96591919557229
KKS-1 (KISEKI)
1 33499U 09002H   19117.18421080  .00000090  00000-0  21369-4 0  9996
2 33499  98.3538 314.2068 0009620  21.5283 338.6328 14.75426764551480
SWISSCUBE
1 35932U 09051B   19117.10363693  .00000130  00000-0  40417-4 0  9991
2 35932  98.5825 281.5529 0006916 335.3255  24.7610 14.56267372509121
BEESAT
1 35933U 09051C   19117.45339298  .00000106  00000-0  34987-4 0  9992
2 35933  98.5856 283.6455 0005422 351.2768   8.8333 14.56358830509286
ITUPSAT 1
1 35935U 09051E   19117.13726846  .00000090  00000-0  31907-4 0  9999
2 35935  98.5967 283.5616 0007652 345.3340  14.7633 14.55521037508992
XIWANG-1 (HOPE-1)
1 36122U 09072B   19116.68448333 -.00000046 +00000-0 -10789-4 0  9990
2 36122 100.0731 121.5569 0008045 103.3267 256.8746 13.16349095449901
TISAT 1
1 36799U 10035E   19117.40645688  .00000247  00000-0  31087-4 0  9999
2 36799  98.1484 267.8480 0010928 255.4232 104.5773 14.91062585476979
JUGNU
1 37839U 11058B   19116.91099477 +.00000314 +00000-0 +25354-4 0  9990
2 37839 019.9613 294.8466 0018963 105.0444 015.4475 14.12648375389675
SRMSAT
1 37841U 11058D   19116.03340618  .00000314  00000-0  27506-4 0  9993
2 37841  19.9733 355.8313 0011715 327.5502 142.2768 14.10629797389101
M-CUBED/EXP-1 PRIME
1 37855U 11061F   19117.22412711  .00000703  00000-0  43475-4 0  9993
2 37855 101.7223 345.8767 0173794 232.3034 126.2311 15.05293717408888
HORYU 2
1 38340U 12025D   19117.09466276  .00000138  00000-0  28199-4 0  9992
2 38340  98.3347 154.0914 0010197 294.2491  65.7651 14.75696909373400
STRAND 1
1 39090U 13009E   19117.56404955  .00000029  00000-0  25469-4 0  9992
2 39090  98.4939 324.3825 0010380  84.5446 275.6923 14.35079873322913
SOMP
1 39134U 13015E   19117.51732625  .00000824  00000-0  47287-4 0  9996
2 39134  64.8633 189.4560 0025916 311.7459  48.1452 15.20019472332663
BEESAT 3
1 39135U 13015F   19117.54492596  .00000591  00000-0  39274-4 0  9998
2 39135  64.8667 206.9417 0013453 321.1512  38.8646 15.17347730332337
BEESAT 2
1 39136U 13015G   19116.77138264 +.00000864 +00000-0 +53654-4 0  9993
2 39136 064.8694 213.0947 0014318 312.2359 047.7551 15.16791018331756
CUBEBUG 1
1 39153U 13018D   19117.25099524  .00000152  00000-0  26715-4 0  9992
2 39153  97.9747 215.6819 0017127  13.5095 346.6572 14.80545238324056
ZACUBE
1 39417U 13066B   19117.21173613  .00000159  00000-0  26424-4 0  9990
2 39417  97.5657 133.6555 0058320 204.6616 155.1807 14.81089167293271
TRITON 1
1 39427U 13066M   19116.89686017 +.00000204 +00000-0 +40725-4 0  9992
2 39427 097.6721 097.5497 0113247 335.2832 024.2972 14.67815962290404
GOMX 1
1 39430U 13066Q   19117.50988443  .00000199  00000-0  44590-4 0  9990
2 39430  97.7417  77.5163 0152786  58.9465 302.6622 14.59226740288998
HUMSAT D
1 39433U 13066T   19117.17432720  .00000259  00000-0  30535-4 0  9999
2 39433  97.5593 166.8103 0032360 115.0113 245.4473 14.92143723295240
CUBEBUG 2
1 39440U 13066AA  19117.54532836  .00000170  00000-0  30807-4 0  9991
2 39440  97.6022 119.0632 0078768 254.1123 105.1396 14.75828988292282
FUNCUBE 1
1 39444U 13066AE  19117.51128248  .00000217  00000-0  33046-4 0  9990
2 39444  97.5640 135.8318 0057650 197.6733 162.2477 14.81902247292207
UWE-3
1 39446U 13066AG  19117.50345874  .00000179  00000-0  30608-4 0  9995
2 39446  97.5827 125.9812 0068827 229.5424 129.9775 14.78363001291558
SPROUT
1 39770U 14029E   19117.35734664  .00000574  00000-0  69775-4 0  9993
2 39770  97.8794 221.0091 0007615 257.7691 102.2666 14.87271203267051
UNISAT 6
1 40012U 14033C   19117.20010913  .00000128  00000-0  26649-4 0  9995
2 40012  97.7653 346.0503 0056868 267.2857  92.1842 14.73954926260955
DUCHIFAT 1
1 40021U 14033M   19117.04990464  .00000317  00000-0  38219-4 0  9991
2 40021  97.9233  41.4737 0011777 219.1007 140.9361 14.90584717263709
QB50P1
1 40025U 14033R   19116.81086030  .00000208  00000-0  28134-4 0  9998
2 40025  97.9064  36.5797 0011240 229.6740 130.3495 14.88910207263458
CHUBUSAT 1
1 40300U 14070C   19117.45533744  .00000548  00000-0  26917-4 0  9999
2 40300  97.3296 192.9526 0018410 237.6506 184.9304 15.22009482248075
NUDT-PHONESAT
1 40900U 15049B   19117.53521205  .00002058  00000-0  91532-4 0  9993
2 40900  97.4387 127.3876 0013623  16.4771 100.4282 15.22568589199724
ZDPS 2A
1 40901U 15049C   19117.52921874  .00000869  00000-0  46475-4 0  9993
2 40901  97.4605 124.1099 0014738  31.0843  86.3420 15.17631662199320
ZDPS 2B
1 40902U 15049D   19117.41886819  .00001212  00000-0  63861-4 0  9992
2 40902  97.4545 121.5735 0014729  29.2664 105.3534 15.17413016199286
XW-2A
1 40903U 15049E   19117.53907317  .00001814  00000-0  45028-4 0  9996
2 40903  97.3439 159.9966 0012748 343.3617 152.4870 15.41645580202210
KAITUO 1A
1 40904U 15049F   19117.44801197  .00000180  00000-0  13046-4 0  9996
2 40904  97.4670 120.3548 0015979  33.8571 132.6148 15.15310463199084
OBJECT G
1 40905U 15049G   19117.42040067  .00000409  00000-0  25891-4 0  9991
2 40905  97.4699 117.9459 0016892  29.1545 110.1288 15.14244259198963
XW-2C
1 40906U 15049H   19117.45790310  .00000555  00000-0  32658-4 0  9999
2 40906  97.4674 120.4055 0015934  26.5244 131.8561 15.15602832199085
XW-2D
1 40907U 15049J   19117.36647005  .00000450  00000-0  27021-4 0  9994
2 40907  97.4659 119.9961 0015462  24.6363  82.4621 15.15783462199082
LILACSAT 2
1 40908U 15049K   19117.45159248  .00000117  00000-0  10078-4 0  9996
2 40908  97.4784 119.0098 0017141  28.6219 128.4994 15.13756837198902
XW-2F
1 40910U 15049M   19117.57734323  .00000818  00000-0  44501-4 0  9991
2 40910  97.4631 122.0848 0015683  17.8206 101.9908 15.17180028199110
XW-2B
1 40911U 15049N   19117.40200354  .00000853  00000-0  48132-4 0  9999
2 40911  97.4677 120.6634 0015187  25.5651 110.1617 15.15718838198984
KAITUO 1B
1 40912U 15049P   19117.49555843  .00001180  00000-0  58749-4 0  9994
2 40912  97.4511 125.5294 0015358   2.6053 149.1559 15.19478699199384
TIANWANG 1C (TW-1C)
1 40926U 15051B   19117.41056000  .00010299  00000-0  15723-3 0  9990
2 40926  97.1412 163.6752 0007738 191.9839 297.6935 15.54587665202032
